Time,TemperatureF,DewpointF,PressureIn,WindDirection,WindDirectionDegrees,WindSpeedMPH,WindSpeedGustMPH,Humidity,HourlyPrecipIn,Conditions,Clouds,dailyrainin,SolarRadiationWatts/m^2,SoftwareType,DateUTC
2013-09-10 00:02:00,60.0,58.6,29.73,SSW,198,2.8,3.5,95,0.00,,,0.00,0.0,WeatherDisplay:10.37,2013-09-10 07:02:00,
2013-09-10 00:07:00,60.1,58.7,29.73,SSW,212,4.0,5.0,95,0.00,,,0.00,0.0,WeatherDisplay:10.37,2013-09-10 07:07:00,
2013-09-10 00:12:00,60.1,58.7,29.73,SW,221,3.6,4.6,95,0.00,,,0.00,0.0,WeatherDisplay:10.37,2013-09-10 07:12:00,
2013-09-10 00:17:00,60.0,58.6,29.73,SSW,204,2.9,4.6,95,0.00,,,0.00,0.0,WeatherDisplay:10.37,2013-09-10 07:17:00,
2013-09-10 00:22:00,60.1,58.7,29.73,WSW,254,2.0,5.8,95,0.00,,,0.00,0.0,WeatherDisplay:10.37,2013-09-10 07:22:00,
2013-09-10 00:27:00,60.0,58.6,29.73,West,269,3.4,9.2,95,0.00,,,0.00,0.0,WeatherDisplay:10.37,2013-09-10 07:27:00,
2013-09-10 00:32:00,60.0,58.6,29.73,SW,234,4.9,9.2,95,0.00,,,0.00,0.0,WeatherDisplay:10.37,2013-09-10 07:32:00,
2013-09-10 00:37:00,59.9,58.5,29.73,SW,226,4.1,6.9,95,0.00,,,0.00,0.0,WeatherDisplay:10.37,2013-09-10 07:37:00,
2013-09-10 00:42:00,59.8,58.4,29.73,SW,230,0.5,2.3,95,0.00,,,0.00,0.0,WeatherDisplay:10.37,2013-09-10 07:42:00,
2013-09-10 00:47:00,59.8,58.4,29.73,SW,221,0.0,2.3,95,0.00,,,0.00,0.0,WeatherDisplay:10.37,2013-09-10 07:47:00,
2013-09-10 00:52:00,59.9,58.5,29.73,SW,226,3.6,5.0,95,0.00,,,0.00,0.0,WeatherDisplay:10.37,2013-09-10 07:52:00,
2013-09-10 00:57:00,59.8,58.4,29.73,WSW,246,1.2,3.5,95,0.00,,,0.00,0.0,WeatherDisplay:10.37,2013-09-10 07:57:00,
2013-09-10 01:02:00,59.9,58.5,29.73,SW,215,6.5,6.9,95,0.00,,,0.00,0.0,WeatherDisplay:10.37,2013-09-10 08:02:00,
2013-09-10 01:07:00,59.7,58.3,29.73,SSW,212,6.4,11.5,95,0.00,,,0.00,0.0,WeatherDisplay:10.37,2013-09-10 08:07:00,
2013-09-10 01:12:00,59.6,58.2,29.73,SW,221,6.2,9.2,95,0.00,,,0.00,0.0,WeatherDisplay:10.37,2013-09-10 08:12:00,
2013-09-10 01:17:00,59.6,58.2,29.74,WSW,237,5.5,9.2,95,0.00,,,0.00,0.0,WeatherDisplay:10.37,2013-09-10 08:17:00,
2013-09-10 01:22:00,59.5,58.1,29.74,SW,219,5.0,9.2,95,0.00,,,0.00,0.0,WeatherDisplay:10.37,2013-09-10 08:22:00,
2013-09-10 01:27:00,59.5,58.1,29.74,SW,229,7.0,9.2,95,0.00,,,0.00,0.0,WeatherDisplay:10.37,2013-09-10 08:27:00,
2013-09-10 01:32:00,59.5,58.1,29.74,SSW,196,3.3,6.9,95,0.00,,,0.00,0.0,WeatherDisplay:10.37,2013-09-10 08:32:00,
2013-09-10 01:37:00,59.4,58.0,29.74,SW,221,5.9,8.1,95,0.00,,,0.00,0.0,WeatherDisplay:10.37,2013-09-10 08:37:00,
2013-09-10 01:42:00,59.3,57.9,29.74,SW,225,3.6,6.9,95,0.00,,,0.00,0.0,WeatherDisplay:10.37,2013-09-10 08:42:00,
2013-09-10 01:47:00,59.3,57.9,29.73,WSW,242,6.2,8.0,95,0.00,,,0.00,0.0,WeatherDisplay:10.37,2013-09-10 08:47:00,
2013-09-10 01:52:00,59.2,57.8,29.73,SW,225,4.7,6.9,95,0.00,,,0.00,0.0,WeatherDisplay:10.37,2013-09-10 08:52:00,
2013-09-10 01:57:00,59.1,57.7,29.73,SSW,202,5.8,9.2,95,0.00,,,0.00,0.0,WeatherDisplay:10.37,2013-09-10 08:57:00,
2013-09-10 02:02:00,59.0,57.6,29.73,SW,230,5.3,11.5,95,0.00,,,0.00,0.0,WeatherDisplay:10.37,2013-09-10 09:02:00,
2013-09-10 02:07:00,58.9,57.5,29.74,SW,234,6.7,11.5,95,0.00,,,0.00,0.0,WeatherDisplay:10.37,2013-09-10 09:07:00,
2013-09-10 02:12:00,58.8,57.4,29.74,SW,231,8.2,11.5,95,0.00,,,0.00,0.0,WeatherDisplay:10.37,2013-09-10 09:12:00,
2013-09-10 02:17:00,58.8,57.4,29.74,South,191,3.3,4.6,95,0.00,,,0.00,0.0,WeatherDisplay:10.37,2013-09-10 09:17:00,
2013-09-10 02:22:00,58.7,57.6,29.74,SW,227,9.0,9.0,96,0.00,,,0.00,0.0,WeatherDisplay:10.37,2013-09-10 09:22:00,
2013-09-10 02:27:00,58.6,57.5,29.74,WSW,242,9.7,11.5,96,0.00,,,0.00,0.0,WeatherDisplay:10.37,2013-09-10 09:27:00,
2013-09-10 02:32:00,58.5,57.4,29.74,SW,233,4.0,10.4,96,0.00,,,0.00,0.0,WeatherDisplay:10.37,2013-09-10 09:32:00,
2013-09-10 02:37:00,58.5,57.4,29.74,WSW,237,4.0,6.9,96,0.00,,,0.00,0.0,WeatherDisplay:10.37,2013-09-10 09:37:00,
2013-09-10 02:42:00,58.5,57.4,29.74,West,271,0.0,1.2,96,0.00,,,0.00,0.0,WeatherDisplay:10.37,2013-09-10 09:42:00,
2013-09-10 02:47:00,58.5,57.4,29.74,SW,219,5.8,10.4,96,0.00,,,0.00,0.0,WeatherDisplay:10.37,2013-09-10 09:47:00,
2013-09-10 02:52:00,58.5,57.4,29.74,WSW,257,5.3,11.5,96,0.00,,,0.00,0.0,WeatherDisplay:10.37,2013-09-10 09:52:00,
2013-09-10 02:57:00,58.4,57.3,29.74,SW,228,3.2,4.6,96,0.00,,,0.00,0.0,WeatherDisplay:10.37,2013-09-10 09:57:00,
2013-09-10 03:02:00,58.3,57.2,29.74,WSW,258,3.8,10.4,96,0.00,,,0.00,0.0,WeatherDisplay:10.37,2013-09-10 10:02:00,
2013-09-10 03:07:00,58.1,57.0,29.74,West,267,5.4,10.4,96,0.00,,,0.00,0.0,WeatherDisplay:10.37,2013-09-10 10:07:00,
2013-09-10 03:12:00,58.0,56.9,29.74,SW,231,5.1,9.2,96,0.00,,,0.00,0.0,WeatherDisplay:10.37,2013-09-10 10:12:00,
2013-09-10 03:17:00,57.9,56.8,29.73,West,266,4.9,6.0,96,0.00,,,0.00,0.0,WeatherDisplay:10.37,2013-09-10 10:17:00,
2013-09-10 03:23:00,57.9,56.8,29.74,West,267,5.4,8.1,96,0.00,,,0.00,0.0,WeatherDisplay:10.37,2013-09-10 10:23:00,
2013-09-10 03:28:00,57.9,56.8,29.74,WNW,283,3.9,6.9,96,0.00,,,0.00,0.0,WeatherDisplay:10.37,2013-09-10 10:28:00,
2013-09-10 03:33:00,58.0,56.9,29.74,West,281,4.1,8.1,96,0.00,,,0.00,0.0,WeatherDisplay:10.37,2013-09-10 10:33:00,
2013-09-10 03:38:00,57.8,56.7,29.74,West,268,5.0,9.2,96,0.00,,,0.00,0.0,WeatherDisplay:10.37,2013-09-10 10:38:00,
2013-09-10 03:43:00,57.7,56.6,29.74,West,267,1.2,3.5,96,0.00,,,0.00,0.0,WeatherDisplay:10.37,2013-09-10 10:43:00,
2013-09-10 03:48:00,57.7,56.6,29.74,SW,216,4.0,4.6,96,0.00,,,0.00,0.0,WeatherDisplay:10.37,2013-09-10 10:48:00,
2013-09-10 03:53:00,57.7,56.6,29.74,WSW,240,5.8,10.4,96,0.00,,,0.00,0.0,WeatherDisplay:10.37,2013-09-10 10:53:00,
2013-09-10 03:58:00,57.6,56.5,29.74,SSW,197,4.9,9.2,96,0.00,,,0.00,0.0,WeatherDisplay:10.37,2013-09-10 10:58:00,
2013-09-10 04:03:00,57.6,56.5,29.74,SW,217,5.0,10.4,96,0.00,,,0.00,0.0,WeatherDisplay:10.37,2013-09-10 11:03:00,
2013-09-10 04:08:00,57.6,56.5,29.74,SW,235,7.3,10.4,96,0.00,,,0.00,0.0,WeatherDisplay:10.37,2013-09-10 11:08:00,
2013-09-10 04:13:00,57.7,56.6,29.74,West,264,3.5,4.6,96,0.00,,,0.00,0.0,WeatherDisplay:10.37,2013-09-10 11:13:00,
2013-09-10 04:18:00,57.7,56.6,29.74,SW,217,4.7,8.1,96,0.00,,,0.00,0.0,WeatherDisplay:10.37,2013-09-10 11:18:00,
2013-09-10 04:23:00,57.8,56.7,29.75,West,271,3.9,5.8,96,0.00,,,0.00,0.0,WeatherDisplay:10.37,2013-09-10 11:23:00,
2013-09-10 04:28:00,57.7,56.6,29.74,SW,214,4.5,11.5,96,0.00,,,0.00,0.0,WeatherDisplay:10.37,2013-09-10 11:28:00,
2013-09-10 04:33:00,57.7,56.6,29.74,West,278,6.1,10.4,96,0.00,,,0.00,0.0,WeatherDisplay:10.37,2013-09-10 11:33:00,
2013-09-10 04:38:00,57.7,56.6,29.74,West,266,6.9,11.5,96,0.00,,,0.00,0.0,WeatherDisplay:10.37,2013-09-10 11:38:00,
2013-09-10 04:43:00,57.6,56.5,29.75,SSW,208,8.9,13.0,96,0.00,,,0.00,0.0,WeatherDisplay:10.37,2013-09-10 11:43:00,
2013-09-10 04:48:00,57.7,56.6,29.74,SW,220,6.8,13.8,96,0.00,,,0.00,0.0,WeatherDisplay:10.37,2013-09-10 11:48:00,
2013-09-10 04:53:00,57.7,56.6,29.74,WSW,237,6.9,16.1,96,0.00,,,0.00,0.0,WeatherDisplay:10.37,2013-09-10 11:53:00,
2013-09-10 04:58:00,57.7,56.6,29.75,WSW,252,6.6,10.4,96,0.00,,,0.00,0.0,WeatherDisplay:10.37,2013-09-10 11:58:00,
2013-09-10 05:03:00,57.7,56.6,29.74,WSW,241,6.3,10.4,96,0.00,,,0.00,0.0,WeatherDisplay:10.37,2013-09-10 12:03:00,
2013-09-10 05:08:00,57.8,56.7,29.74,WSW,244,11.3,12.7,96,0.00,,,0.00,0.0,WeatherDisplay:10.37,2013-09-10 12:08:00,
2013-09-10 05:13:00,57.9,56.8,29.75,WSW,256,10.0,17.3,96,0.00,,,0.00,0.0,WeatherDisplay:10.37,2013-09-10 12:13:00,
2013-09-10 05:18:00,57.9,56.8,29.75,WNW,283,9.4,11.0,96,0.00,,,0.00,0.0,WeatherDisplay:10.37,2013-09-10 12:18:00,
2013-09-10 05:23:00,58.0,56.9,29.75,SW,227,8.4,12.0,96,0.00,,,0.00,0.0,WeatherDisplay:10.37,2013-09-10 12:23:00,
2013-09-10 05:28:00,58.0,56.9,29.75,SW,219,8.1,11.5,96,0.00,,,0.00,0.0,WeatherDisplay:10.37,2013-09-10 12:28:00,
2013-09-10 05:34:00,58.0,56.9,29.75,WSW,242,2.8,6.9,96,0.00,,,0.00,0.0,WeatherDisplay:10.37,2013-09-10 12:34:00,
2013-09-10 05:39:00,58.1,57.0,29.75,South,185,6.7,11.5,96,0.00,,,0.00,0.0,WeatherDisplay:10.37,2013-09-10 12:39:00,
2013-09-10 05:44:00,58.1,57.0,29.75,SW,235,3.7,5.8,96,0.00,,,0.00,0.0,WeatherDisplay:10.37,2013-09-10 12:44:00,
2013-09-10 05:49:00,58.2,57.1,29.75,SW,219,10.6,13.8,96,0.00,,,0.00,0.0,WeatherDisplay:10.37,2013-09-10 12:49:00,
2013-09-10 05:54:00,58.2,57.1,29.75,SW,215,3.4,4.6,96,0.00,,,0.00,0.0,WeatherDisplay:10.37,2013-09-10 12:54:00,
2013-09-10 05:59:00,58.2,57.1,29.76,SW,214,8.5,11.5,96,0.00,,,0.00,0.0,WeatherDisplay:10.37,2013-09-10 12:59:00,
2013-09-10 06:04:00,58.3,57.2,29.75,SW,220,6.5,15.0,96,0.00,,,0.00,0.0,WeatherDisplay:10.37,2013-09-10 13:04:00,
2013-09-10 06:09:00,58.2,57.1,29.75,WSW,242,4.5,9.2,96,0.00,,,0.00,0.0,WeatherDisplay:10.37,2013-09-10 13:09:00,
2013-09-10 06:14:00,58.2,57.1,29.75,SW,229,4.2,10.4,96,0.00,,,0.00,0.0,WeatherDisplay:10.37,2013-09-10 13:14:00,
2013-09-10 06:19:00,58.2,57.1,29.75,SSW,210,2.9,6.9,96,0.00,,,0.00,0.0,WeatherDisplay:10.37,2013-09-10 13:19:00,
2013-09-10 06:24:00,58.2,57.1,29.76,West,281,6.8,16.1,96,0.00,,,0.00,0.0,WeatherDisplay:10.37,2013-09-10 13:24:00,
2013-09-10 06:29:00,58.2,57.1,29.76,WSW,241,4.3,6.9,96,0.00,,,0.00,0.0,WeatherDisplay:10.37,2013-09-10 13:29:00,
2013-09-10 06:34:00,58.3,57.2,29.76,West,262,5.5,9.2,96,0.00,,,0.00,0.0,WeatherDisplay:10.37,2013-09-10 13:34:00,
2013-09-10 06:39:00,58.3,57.2,29.76,SW,227,6.7,10.4,96,0.00,,,0.00,0.0,WeatherDisplay:10.37,2013-09-10 13:39:00,
2013-09-10 06:44:00,58.3,57.2,29.76,WSW,250,5.2,10.4,96,0.00,,,0.00,0.0,WeatherDisplay:10.37,2013-09-10 13:44:00,
2013-09-10 06:49:00,58.4,57.3,29.76,SW,225,3.3,8.0,96,0.00,,,0.00,0.0,WeatherDisplay:10.37,2013-09-10 13:49:00,
2013-09-10 06:54:00,58.4,57.3,29.77,SW,228,3.9,12.7,96,0.00,,,0.00,5.0,WeatherDisplay:10.37,2013-09-10 13:54:00,
2013-09-10 06:59:00,58.5,57.4,29.76,WSW,239,5.9,11.5,96,0.00,,,0.00,7.0,WeatherDisplay:10.37,2013-09-10 13:59:00,
2013-09-10 07:04:00,58.5,57.4,29.77,SW,227,10.8,15.0,96,0.00,,,0.00,11.0,WeatherDisplay:10.37,2013-09-10 14:04:00,
2013-09-10 07:09:00,58.4,57.3,29.77,WSW,239,10.0,16.0,96,0.00,,,0.00,14.0,WeatherDisplay:10.37,2013-09-10 14:09:00,
2013-09-10 07:14:00,58.4,57.3,29.77,WSW,243,7.0,18.0,96,0.00,,,0.00,18.0,WeatherDisplay:10.37,2013-09-10 14:14:00,
2013-09-10 07:19:00,58.5,57.4,29.77,SW,221,11.7,11.7,96,0.00,,,0.00,32.0,WeatherDisplay:10.37,2013-09-10 14:19:00,
2013-09-10 07:24:00,58.6,57.2,29.77,SW,234,5.4,15.0,95,0.00,,,0.00,46.0,WeatherDisplay:10.37,2013-09-10 14:24:00,
2013-09-10 07:29:00,58.7,57.3,29.77,SW,226,8.6,16.1,95,0.00,,,0.00,39.0,WeatherDisplay:10.37,2013-09-10 14:29:00,
2013-09-10 07:35:00,58.8,57.4,29.77,SW,228,9.0,20.0,95,0.00,,,0.00,62.0,WeatherDisplay:10.37,2013-09-10 14:35:00,
2013-09-10 07:40:00,58.9,57.5,29.78,WSW,254,9.0,10.4,95,0.00,BKN,,0.00,134.0,WeatherDisplay:10.37,2013-09-10 14:40:00,
2013-09-10 07:45:00,59.1,57.7,29.78,SW,223,5.8,10.4,95,0.00,BKN,,0.00,134.0,WeatherDisplay:10.37,2013-09-10 14:45:00,
2013-09-10 07:50:00,59.3,57.9,29.78,SW,234,7.0,14.0,95,0.00,BKN,,0.00,162.0,WeatherDisplay:10.37,2013-09-10 14:50:00,
2013-09-10 07:55:00,59.6,58.2,29.78,SW,221,4.7,6.0,95,0.00,BKN,,0.00,158.0,WeatherDisplay:10.37,2013-09-10 14:55:00,
2013-09-10 08:00:00,60.0,58.6,29.78,WSW,239,6.3,8.0,95,0.00,BKN,,0.00,192.0,WeatherDisplay:10.37,2013-09-10 15:00:00,
2013-09-10 08:05:00,60.4,58.7,29.78,WSW,247,7.9,10.4,94,0.00,BKN,,0.00,209.0,WeatherDisplay:10.37,2013-09-10 15:05:00,
2013-09-10 08:10:00,60.5,58.5,29.78,SW,236,8.5,11.5,93,0.00,BKN,,0.00,243.0,WeatherDisplay:10.37,2013-09-10 15:10:00,
2013-09-10 08:15:00,60.7,58.7,29.79,SW,217,3.9,10.4,93,0.00,BKN,,0.00,251.0,WeatherDisplay:10.37,2013-09-10 15:15:00,
2013-09-10 08:20:00,61.1,59.1,29.79,SW,227,3.3,5.8,93,0.00,BKN,,0.00,137.0,WeatherDisplay:10.37,2013-09-10 15:20:00,
2013-09-10 08:25:00,61.3,58.7,29.79,SW,232,3.2,5.0,91,0.00,BKN,,0.00,144.0,WeatherDisplay:10.37,2013-09-10 15:25:00,
2013-09-10 08:30:00,61.3,58.7,29.79,SW,232,1.3,3.5,91,0.00,BKN,,0.00,162.0,WeatherDisplay:10.37,2013-09-10 15:30:00,
2013-09-10 08:35:00,61.3,58.3,29.79,SW,235,1.6,3.5,90,0.00,BKN,,0.00,171.0,WeatherDisplay:10.37,2013-09-10 15:35:00,
2013-09-10 08:40:00,61.3,58.3,29.79,WNW,284,2.8,3.5,90,0.00,BKN,,0.00,185.0,WeatherDisplay:10.37,2013-09-10 15:40:00,
2013-09-10 08:45:00,61.3,58.0,29.79,WNW,284,2.5,3.5,89,0.00,BKN,,0.00,359.0,WeatherDisplay:10.37,2013-09-10 15:45:00,
2013-09-10 08:50:00,61.5,58.2,29.79,WNW,284,0.1,2.3,89,0.00,SCT,,0.00,441.0,WeatherDisplay:10.37,2013-09-10 15:50:00,
2013-09-10 08:55:00,62.4,59.7,29.79,WSW,244,0.1,2.3,91,0.00,SCT,,0.00,438.0,WeatherDisplay:10.37,2013-09-10 15:55:00,
2013-09-10 09:00:00,63.4,60.1,29.80,SSW,193,0.3,2.3,89,0.00,SCT,,0.00,432.0,WeatherDisplay:10.37,2013-09-10 16:00:00,
2013-09-10 09:05:00,64.3,60.0,29.80,SSW,193,0.1,1.2,86,0.00,SCT,,0.00,439.0,WeatherDisplay:10.37,2013-09-10 16:05:00,
2013-09-10 09:10:00,65.0,59.7,29.80,SSE,165,1.6,3.5,83,0.00,SCT,,0.00,197.0,WeatherDisplay:10.37,2013-09-10 16:10:00,
2013-09-10 09:15:00,65.3,59.3,29.80,SSE,165,0.5,2.0,81,0.00,BKN,,0.00,190.0,WeatherDisplay:10.37,2013-09-10 16:15:00,
2013-09-10 09:20:00,65.3,59.3,29.80,SSE,165,0.6,1.0,81,0.00,BKN,,0.00,301.0,WeatherDisplay:10.37,2013-09-10 16:20:00,
2013-09-10 09:25:00,65.6,59.6,29.80,SSE,165,2.2,3.5,81,0.00,SCT,,0.00,499.0,WeatherDisplay:10.37,2013-09-10 16:25:00,
2013-09-10 09:31:00,66.2,59.5,29.80,SSE,165,1.8,3.5,79,0.00,CLR,,0.00,508.0,WeatherDisplay:10.37,2013-09-10 16:31:00,
2013-09-10 09:36:00,66.7,59.6,29.80,SSE,165,0.0,0.0,78,0.00,CLR,,0.00,513.0,WeatherDisplay:10.37,2013-09-10 16:36:00,
2013-09-10 09:41:00,67.2,59.7,29.80,SSE,165,1.0,3.5,77,0.00,CLR,,0.00,524.0,WeatherDisplay:10.37,2013-09-10 16:41:00,
2013-09-10 09:46:00,67.7,59.9,29.80,SSE,165,1.5,3.5,76,0.00,CLR,,0.00,531.0,WeatherDisplay:10.37,2013-09-10 16:46:00,
2013-09-10 09:51:00,68.3,60.1,29.80,SSE,165,1.2,3.5,75,0.00,CLR,,0.00,536.0,WeatherDisplay:10.37,2013-09-10 16:51:00,
2013-09-10 09:56:00,68.3,59.7,29.80,SSE,160,0.5,1.2,74,0.00,CLR,,0.00,554.0,WeatherDisplay:10.37,2013-09-10 16:56:00,
2013-09-10 10:01:00,68.5,59.9,29.80,SSE,159,0.3,2.3,74,0.00,CLR,,0.00,568.0,WeatherDisplay:10.37,2013-09-10 17:01:00,
2013-09-10 10:06:00,68.8,59.8,29.80,SSE,159,1.7,2.3,73,0.00,CLR,,0.00,584.0,WeatherDisplay:10.37,2013-09-10 17:06:00,
2013-09-10 10:12:00,69.2,60.2,29.80,SSE,160,0.7,3.5,73,0.00,CLR,,0.00,601.0,WeatherDisplay:10.37,2013-09-10 17:12:00,
2013-09-10 10:17:00,69.6,60.2,29.80,SSE,160,0.0,0.0,72,0.00,CLR,,0.00,596.0,WeatherDisplay:10.37,2013-09-10 17:17:00,
2013-09-10 10:22:00,69.9,60.1,29.80,South,183,0.4,1.2,71,0.00,CLR,,0.00,608.0,WeatherDisplay:10.37,2013-09-10 17:22:00,
2013-09-10 10:27:00,69.5,60.1,29.80,WNW,283,2.6,3.5,72,0.00,CLR,,0.00,610.0,WeatherDisplay:10.37,2013-09-10 17:27:00,
2013-09-10 10:32:00,69.5,60.1,29.79,West,267,5.4,8.1,72,0.00,CLR,,0.00,610.0,WeatherDisplay:10.37,2013-09-10 17:32:00,
2013-09-10 10:37:00,69.2,59.8,29.80,East,82,0.0,0.0,72,0.00,CLR,,0.00,629.0,WeatherDisplay:10.37,2013-09-10 17:37:00,
2013-09-10 10:42:00,68.9,59.9,29.80,East,93,2.2,5.0,73,0.00,CLR,,0.00,636.0,WeatherDisplay:10.37,2013-09-10 17:42:00,
2013-09-10 10:47:00,68.5,59.9,29.80,ESE,108,0.8,3.5,74,0.00,CLR,,0.00,656.0,WeatherDisplay:10.37,2013-09-10 17:47:00,
2013-09-10 10:52:00,68.6,59.6,29.80,ESE,108,0.0,0.0,73,0.00,CLR,,0.00,656.0,WeatherDisplay:10.37,2013-09-10 17:52:00,
2013-09-10 10:57:00,68.8,60.2,29.80,ESE,108,0.0,0.0,74,0.00,CLR,,0.00,659.0,WeatherDisplay:10.37,2013-09-10 17:57:00,
2013-09-10 11:02:00,69.0,60.4,29.80,ESE,108,1.1,3.5,74,0.00,CLR,,0.00,671.0,WeatherDisplay:10.37,2013-09-10 18:02:00,
2013-09-10 11:07:00,69.8,61.1,29.80,SSW,208,2.1,5.0,74,0.00,CLR,,0.00,680.0,WeatherDisplay:10.37,2013-09-10 18:07:00,
2013-09-10 11:12:00,70.3,60.8,29.80,SSW,194,1.8,4.6,72,0.00,CLR,,0.00,686.0,WeatherDisplay:10.37,2013-09-10 18:12:00,
2013-09-10 11:17:00,70.7,60.8,29.80,West,278,3.4,5.8,71,0.00,CLR,,0.00,700.0,WeatherDisplay:10.37,2013-09-10 18:17:00,
2013-09-10 11:22:00,70.6,60.7,29.80,NW,317,5.2,9.2,71,0.00,CLR,,0.00,700.0,WeatherDisplay:10.37,2013-09-10 18:22:00,
2013-09-10 11:27:00,70.2,60.4,29.81,West,273,3.5,5.8,71,0.00,CLR,,0.00,710.0,WeatherDisplay:10.37,2013-09-10 18:27:00,
2013-09-10 11:32:00,69.7,60.3,29.81,West,260,3.3,11.5,72,0.00,CLR,,0.00,719.0,WeatherDisplay:10.37,2013-09-10 18:32:00,
2013-09-10 11:37:00,69.2,59.8,29.81,West,271,6.2,10.0,72,0.00,CLR,,0.00,724.0,WeatherDisplay:10.37,2013-09-10 18:37:00,
2013-09-10 11:42:00,68.9,60.3,29.81,West,271,8.1,11.5,74,0.00,CLR,,0.00,729.0,WeatherDisplay:10.37,2013-09-10 18:42:00,
2013-09-10 11:47:00,68.5,59.9,29.81,WNW,297,6.6,16.1,74,0.00,CLR,,0.00,733.0,WeatherDisplay:10.37,2013-09-10 18:47:00,
2013-09-10 11:52:00,68.6,60.4,29.81,SW,228,3.0,11.0,75,0.00,CLR,,0.00,738.0,WeatherDisplay:10.37,2013-09-10 18:52:00,
2013-09-10 11:57:00,68.9,60.6,29.81,WSW,251,5.4,11.5,75,0.00,CLR,,0.00,744.0,WeatherDisplay:10.37,2013-09-10 18:57:00,
2013-09-10 12:02:00,69.4,60.4,29.81,SW,227,6.3,16.1,73,0.00,CLR,,0.00,749.0,WeatherDisplay:10.37,2013-09-10 19:02:00,
2013-09-10 12:07:00,69.6,60.6,29.81,SSW,201,2.7,6.9,73,0.00,CLR,,0.00,749.0,WeatherDisplay:10.37,2013-09-10 19:07:00,
2013-09-10 12:12:00,69.9,60.5,29.81,SSW,199,6.2,10.0,72,0.00,CLR,,0.00,754.0,WeatherDisplay:10.37,2013-09-10 19:12:00,
2013-09-10 12:17:00,70.1,60.7,29.81,SW,227,6.4,11.5,72,0.00,CLR,,0.00,758.0,WeatherDisplay:10.37,2013-09-10 19:17:00,
2013-09-10 12:22:00,70.3,60.4,29.81,South,185,9.5,16.0,71,0.00,CLR,,0.00,761.0,WeatherDisplay:10.37,2013-09-10 19:22:00,
2013-09-10 12:27:00,70.1,59.9,29.81,SW,221,9.3,12.7,70,0.00,CLR,,0.00,765.0,WeatherDisplay:10.37,2013-09-10 19:27:00,
2013-09-10 12:32:00,69.9,60.1,29.81,SW,216,10.5,15.0,71,0.00,SCT,,0.00,765.0,WeatherDisplay:10.37,2013-09-10 19:32:00,
2013-09-10 12:37:00,69.9,60.1,29.81,South,182,7.7,12.7,71,0.00,OVC,,0.00,768.0,WeatherDisplay:10.37,2013-09-10 19:37:00,
2013-09-10 12:42:00,69.8,60.4,29.81,WSW,244,7.1,14.0,72,0.00,OVC,,0.00,768.0,WeatherDisplay:10.37,2013-09-10 19:42:00,
2013-09-10 12:47:00,70.0,60.2,29.81,SW,233,9.4,15.0,71,0.00,OVC,,0.00,770.0,WeatherDisplay:10.37,2013-09-10 19:47:00,
2013-09-10 12:53:00,70.1,59.9,29.81,SW,223,14.4,18.4,70,0.00,OVC,,0.00,768.0,WeatherDisplay:10.37,2013-09-10 19:53:00,
2013-09-10 12:58:00,70.0,60.2,29.81,WSW,252,12.1,19.6,71,0.00,OVC,,0.00,768.0,WeatherDisplay:10.37,2013-09-10 19:58:00,
2013-09-10 13:03:00,69.9,60.1,29.81,SW,219,9.4,18.4,71,0.00,OVC,,0.00,766.0,WeatherDisplay:10.37,2013-09-10 20:03:00,
2013-09-10 13:08:00,69.9,60.1,29.81,SW,228,10.7,13.8,71,0.00,OVC,,0.00,766.0,WeatherDisplay:10.37,2013-09-10 20:08:00,
2013-09-10 13:13:00,69.8,60.0,29.81,SW,231,5.7,12.7,71,0.00,OVC,,0.00,766.0,WeatherDisplay:10.37,2013-09-10 20:13:00,
2013-09-10 13:18:00,69.9,59.7,29.81,WSW,237,13.0,17.3,70,0.00,OVC,,0.00,766.0,WeatherDisplay:10.37,2013-09-10 20:18:00,
2013-09-10 13:23:00,69.8,60.0,29.81,SSW,195,8.6,11.5,71,0.00,OVC,,0.00,763.0,WeatherDisplay:10.37,2013-09-10 20:23:00,
2013-09-10 13:28:00,70.2,60.0,29.81,WSW,239,7.7,13.8,70,0.00,OVC,,0.00,761.0,WeatherDisplay:10.37,2013-09-10 20:28:00,
2013-09-10 13:33:00,70.3,59.6,29.81,WSW,240,11.8,17.3,69,0.00,OVC,,0.00,759.0,WeatherDisplay:10.37,2013-09-10 20:33:00,
2013-09-10 13:38:00,70.5,60.2,29.81,SW,227,12.4,14.0,70,0.00,OVC,,0.00,756.0,WeatherDisplay:10.37,2013-09-10 20:38:00,
2013-09-10 13:43:00,70.4,59.7,29.81,SW,227,14.5,17.3,69,0.00,OVC,,0.00,754.0,WeatherDisplay:10.37,2013-09-10 20:43:00,
2013-09-10 13:49:00,70.3,60.1,29.81,WSW,248,10.4,16.0,70,0.00,OVC,,0.00,747.0,WeatherDisplay:10.37,2013-09-10 20:49:00,
2013-09-10 13:54:00,70.4,60.1,29.81,SW,235,12.3,16.1,70,0.00,OVC,,0.00,742.0,WeatherDisplay:10.37,2013-09-10 20:54:00,
2013-09-10 13:59:00,70.2,60.0,29.81,West,266,11.1,18.4,70,0.00,OVC,,0.00,737.0,WeatherDisplay:10.37,2013-09-10 20:59:00,
2013-09-10 14:04:00,70.1,59.9,29.81,SSW,202,11.8,19.6,70,0.00,OVC,,0.00,733.0,WeatherDisplay:10.37,2013-09-10 21:04:00,
2013-09-10 14:09:00,70.0,59.8,29.81,South,181,14.2,20.7,70,0.00,OVC,,0.00,728.0,WeatherDisplay:10.37,2013-09-10 21:09:00,
2013-09-10 14:14:00,69.9,59.7,29.81,SW,231,13.2,20.7,70,0.00,OVC,,0.00,721.0,WeatherDisplay:10.37,2013-09-10 21:14:00,
2013-09-10 14:19:00,69.8,60.0,29.81,SSW,192,13.0,18.4,71,0.00,OVC,,0.00,715.0,WeatherDisplay:10.37,2013-09-10 21:19:00,
2013-09-10 14:24:00,69.8,60.0,29.80,WSW,242,11.5,24.2,71,0.00,OVC,,0.00,708.0,WeatherDisplay:10.37,2013-09-10 21:24:00,
2013-09-10 14:29:00,69.7,60.3,29.80,SW,231,8.9,19.6,72,0.00,OVC,,0.00,700.0,WeatherDisplay:10.37,2013-09-10 21:29:00,
2013-09-10 14:34:00,69.9,60.1,29.81,SW,222,15.5,20.7,71,0.00,OVC,,0.00,694.0,WeatherDisplay:10.37,2013-09-10 21:34:00,
2013-09-10 14:39:00,69.8,60.0,29.81,WSW,244,10.8,19.6,71,0.00,OVC,,0.00,689.0,WeatherDisplay:10.37,2013-09-10 21:39:00,
2013-09-10 14:44:00,69.7,60.3,29.81,WSW,241,12.9,19.6,72,0.00,OVC,,0.00,682.0,WeatherDisplay:10.37,2013-09-10 21:44:00,
2013-09-10 14:49:00,69.7,60.3,29.81,SSW,212,13.4,23.0,72,0.00,OVC,,0.00,673.0,WeatherDisplay:10.37,2013-09-10 21:49:00,
2013-09-10 14:54:00,69.6,60.2,29.81,SW,217,14.3,25.3,72,0.00,OVC,,0.00,663.0,WeatherDisplay:10.37,2013-09-10 21:54:00,
2013-09-10 14:59:00,69.8,60.4,29.81,WSW,239,13.6,15.0,72,0.00,OVC,,0.00,649.0,WeatherDisplay:10.37,2013-09-10 21:59:00,
2013-09-10 15:04:00,70.0,60.2,29.81,SW,223,10.1,19.6,71,0.00,OVC,,0.00,643.0,WeatherDisplay:10.37,2013-09-10 22:04:00,
2013-09-10 15:09:00,69.8,60.4,29.81,WSW,237,16.8,25.3,72,0.00,OVC,,0.00,631.0,WeatherDisplay:10.37,2013-09-10 22:09:00,
2013-09-10 15:14:00,69.4,60.0,29.81,WSW,254,10.3,19.6,72,0.00,OVC,,0.00,622.0,WeatherDisplay:10.37,2013-09-10 22:14:00,
2013-09-10 15:19:00,69.4,60.0,29.81,SW,217,15.3,25.3,72,0.00,OVC,,0.00,613.0,WeatherDisplay:10.37,2013-09-10 22:19:00,
2013-09-10 15:24:00,69.4,60.0,29.81,SSW,201,12.4,20.7,72,0.00,OVC,,0.00,603.0,WeatherDisplay:10.37,2013-09-10 22:24:00,
2013-09-10 15:29:00,69.3,60.3,29.81,SW,221,19.6,28.0,73,0.00,OVC,,0.00,592.0,WeatherDisplay:10.37,2013-09-10 22:29:00,
2013-09-10 15:34:00,69.2,60.2,29.81,SW,214,12.6,20.7,73,0.00,OVC,,0.00,584.0,WeatherDisplay:10.37,2013-09-10 22:34:00,
2013-09-10 15:39:00,69.1,60.5,29.81,WSW,248,14.0,18.4,74,0.00,OVC,,0.00,573.0,WeatherDisplay:10.37,2013-09-10 22:39:00,
2013-09-10 15:44:00,68.8,60.2,29.81,SW,236,17.8,24.2,74,0.00,OVC,,0.00,561.0,WeatherDisplay:10.37,2013-09-10 22:44:00,
2013-09-10 15:49:00,68.6,60.4,29.81,SW,227,12.6,19.6,75,0.00,OVC,,0.00,547.0,WeatherDisplay:10.37,2013-09-10 22:49:00,
2013-09-10 15:54:00,68.6,60.4,29.81,WSW,250,8.0,13.8,75,0.00,OVC,,0.00,533.0,WeatherDisplay:10.37,2013-09-10 22:54:00,
2013-09-10 15:59:00,68.8,60.2,29.81,SW,231,13.2,17.3,74,0.00,OVC,,0.00,524.0,WeatherDisplay:10.37,2013-09-10 22:59:00,
2013-09-10 16:04:00,68.8,60.6,29.80,SW,227,12.0,17.3,75,0.00,OVC,,0.00,512.0,WeatherDisplay:10.37,2013-09-10 23:04:00,
2013-09-10 16:09:00,68.7,60.5,29.80,SW,225,15.8,26.5,75,0.00,OVC,,0.00,499.0,WeatherDisplay:10.37,2013-09-10 23:09:00,
2013-09-10 16:15:00,68.5,60.3,29.80,SW,229,9.6,15.0,75,0.00,OVC,,0.00,483.0,WeatherDisplay:10.37,2013-09-10 23:15:00,
2013-09-10 16:20:00,68.3,60.1,29.80,West,260,17.1,25.3,75,0.00,OVC,,0.00,473.0,WeatherDisplay:10.37,2013-09-10 23:20:00,
2013-09-10 16:25:00,68.1,60.2,29.80,SW,232,13.9,24.2,76,0.00,OVC,,0.00,461.0,WeatherDisplay:10.37,2013-09-10 23:25:00,
2013-09-10 16:30:00,68.1,60.2,29.80,WSW,255,14.6,25.3,76,0.00,OVC,,0.00,445.0,WeatherDisplay:10.37,2013-09-10 23:30:00,
2013-09-10 16:35:00,68.0,60.2,29.80,West,266,14.3,21.9,76,0.00,OVC,,0.00,427.0,WeatherDisplay:10.37,2013-09-10 23:35:00,
2013-09-10 16:40:00,68.0,60.5,29.80,SW,233,11.4,19.6,77,0.00,OVC,,0.00,415.0,WeatherDisplay:10.37,2013-09-10 23:40:00,
2013-09-10 16:45:00,68.2,60.3,29.80,SW,236,17.2,26.5,76,0.00,OVC,,0.00,404.0,WeatherDisplay:10.37,2013-09-10 23:45:00,
2013-09-10 16:50:00,68.0,60.2,29.81,SW,216,14.1,26.5,76,0.00,OVC,,0.00,390.0,WeatherDisplay:10.37,2013-09-10 23:50:00,
2013-09-10 16:55:00,67.9,60.4,29.81,SSW,213,13.3,19.6,77,0.00,OVC,,0.00,378.0,WeatherDisplay:10.37,2013-09-10 23:55:00,
2013-09-10 17:00:00,67.6,60.1,29.80,West,269,13.3,21.9,77,0.00,OVC,,0.00,360.0,WeatherDisplay:10.37,2013-09-11 00:00:00,
2013-09-10 17:05:00,67.4,60.3,29.81,WSW,237,13.4,23.0,78,0.00,OVC,,0.00,346.0,WeatherDisplay:10.37,2013-09-11 00:05:00,
2013-09-10 17:10:00,67.2,60.1,29.81,WSW,246,12.1,19.6,78,0.00,OVC,,0.00,330.0,WeatherDisplay:10.37,2013-09-11 00:10:00,
2013-09-10 17:15:00,67.1,60.0,29.81,WSW,240,16.8,19.6,78,0.00,OVC,,0.00,318.0,WeatherDisplay:10.37,2013-09-11 00:15:00,
2013-09-10 17:20:00,67.1,60.4,29.81,SW,216,10.9,18.4,79,0.00,OVC,,0.00,302.0,WeatherDisplay:10.37,2013-09-11 00:20:00,
2013-09-10 17:25:00,67.0,60.3,29.81,SW,231,10.3,19.6,79,0.00,OVC,,0.00,288.0,WeatherDisplay:10.37,2013-09-11 00:25:00,
2013-09-10 17:30:00,67.0,60.3,29.81,WSW,244,13.0,18.4,79,0.00,OVC,,0.00,272.0,WeatherDisplay:10.37,2013-09-11 00:30:00,
2013-09-10 17:35:00,66.8,60.1,29.81,South,184,11.8,15.0,79,0.00,OVC,,0.00,255.0,WeatherDisplay:10.37,2013-09-11 00:35:00,
2013-09-10 17:40:00,66.8,60.4,29.81,WSW,244,11.5,18.0,80,0.00,OVC,,0.00,241.0,WeatherDisplay:10.37,2013-09-11 00:40:00,
2013-09-10 17:45:00,66.7,60.0,29.81,SW,216,14.8,19.6,79,0.00,OVC,,0.00,225.0,WeatherDisplay:10.37,2013-09-11 00:45:00,
2013-09-10 17:50:00,66.5,59.8,29.81,SW,230,15.7,24.2,79,0.00,OVC,,0.00,209.0,WeatherDisplay:10.37,2013-09-11 00:50:00,
2013-09-10 17:55:00,66.2,60.2,29.81,SW,221,12.2,20.7,81,0.00,OVC,,0.00,197.0,WeatherDisplay:10.37,2013-09-11 00:55:00,
2013-09-10 18:00:00,66.1,60.1,29.81,WSW,239,11.9,19.6,81,0.00,OVC,,0.00,183.0,WeatherDisplay:10.37,2013-09-11 01:00:00,
2013-09-10 18:05:00,66.1,60.1,29.81,WSW,243,10.9,17.3,81,0.00,OVC,,0.00,167.0,WeatherDisplay:10.37,2013-09-11 01:05:00,
2013-09-10 18:10:00,66.1,60.1,29.81,SSW,203,12.0,15.0,81,0.00,OVC,,0.00,135.0,WeatherDisplay:10.37,2013-09-11 01:10:00,
2013-09-10 18:15:00,65.8,59.8,29.81,SW,214,12.2,17.3,81,0.00,OVC,,0.00,56.0,WeatherDisplay:10.37,2013-09-11 01:15:00,
2013-09-10 18:20:00,65.6,60.0,29.81,SW,231,12.8,17.3,82,0.00,OVC,,0.00,128.0,WeatherDisplay:10.37,2013-09-11 01:20:00,
2013-09-10 18:25:00,65.5,59.9,29.81,SW,222,8.4,12.7,82,0.00,OVC,,0.00,47.0,WeatherDisplay:10.37,2013-09-11 01:25:00,
2013-09-10 18:30:00,65.4,59.8,29.82,SW,235,11.4,17.3,82,0.00,OVC,,0.00,42.0,WeatherDisplay:10.37,2013-09-11 01:30:00,
2013-09-10 18:35:00,65.0,59.7,29.82,SSW,194,12.8,24.2,83,0.00,,,0.00,40.0,WeatherDisplay:10.37,2013-09-11 01:35:00,
2013-09-10 18:40:00,64.8,59.5,29.82,SW,227,10.7,15.0,83,0.00,OVC,,0.00,35.0,WeatherDisplay:10.37,2013-09-11 01:40:00,
2013-09-10 18:45:00,64.6,59.7,29.82,WSW,237,13.0,26.5,84,0.00,,,0.00,32.0,WeatherDisplay:10.37,2013-09-11 01:45:00,
2013-09-10 18:50:00,64.5,59.6,29.82,WSW,237,12.7,19.6,84,0.00,OVC,,0.00,28.0,WeatherDisplay:10.37,2013-09-11 01:50:00,
2013-09-10 18:56:00,64.4,59.5,29.82,SSW,212,14.6,25.3,84,0.00,,,0.00,25.0,WeatherDisplay:10.37,2013-09-11 01:56:00,
2013-09-10 19:01:00,64.3,59.7,29.82,SSW,212,11.0,24.2,85,0.00,,,0.00,19.0,WeatherDisplay:10.37,2013-09-11 02:01:00,
2013-09-10 19:06:00,64.3,59.7,29.82,WSW,250,8.4,12.7,85,0.00,OVC,,0.00,16.0,WeatherDisplay:10.37,2013-09-11 02:06:00,
2013-09-10 19:11:00,64.1,59.5,29.82,WSW,246,11.0,18.4,85,0.00,OVC,,0.00,12.0,WeatherDisplay:10.37,2013-09-11 02:11:00,
2013-09-10 19:16:00,64.0,59.4,29.82,SW,229,10.9,20.7,85,0.00,OVC,,0.00,9.0,WeatherDisplay:10.37,2013-09-11 02:16:00,
2013-09-10 19:22:00,63.9,59.6,29.82,SW,226,9.3,14.0,86,0.00,OVC,,0.00,5.0,WeatherDisplay:10.37,2013-09-11 02:22:00,
2013-09-10 19:27:00,63.8,59.5,29.82,SW,215,7.0,13.8,86,0.00,OVC,,0.00,0.0,WeatherDisplay:10.37,2013-09-11 02:27:00,
2013-09-10 19:32:00,63.7,59.4,29.82,WSW,254,6.1,9.2,86,0.00,OVC,,0.00,0.0,WeatherDisplay:10.37,2013-09-11 02:32:00,
2013-09-10 19:37:00,63.6,59.3,29.82,SW,233,10.9,16.1,86,0.00,OVC,,0.00,0.0,WeatherDisplay:10.37,2013-09-11 02:37:00,
2013-09-10 19:42:00,63.5,59.6,29.83,SW,232,8.8,16.1,87,0.00,OVC,,0.00,0.0,WeatherDisplay:10.37,2013-09-11 02:42:00,
2013-09-10 19:47:00,63.5,59.6,29.83,SSW,209,9.1,14.0,87,0.00,OVC,,0.00,0.0,WeatherDisplay:10.37,2013-09-11 02:47:00,
2013-09-10 19:52:00,63.4,59.5,29.83,SSW,200,14.2,18.4,87,0.00,OVC,,0.00,0.0,WeatherDisplay:10.37,2013-09-11 02:52:00,
2013-09-10 19:57:00,63.4,59.5,29.83,WSW,237,16.1,23.0,87,0.00,,,0.00,0.0,WeatherDisplay:10.37,2013-09-11 02:57:00,
2013-09-10 20:02:00,63.3,59.4,29.83,SW,224,5.8,6.9,87,0.00,,,0.00,0.0,WeatherDisplay:10.37,2013-09-11 03:02:00,
2013-09-10 20:07:00,63.2,59.3,29.83,WSW,242,11.7,19.6,87,0.00,,,0.00,0.0,WeatherDisplay:10.37,2013-09-11 03:07:00,
2013-09-10 20:12:00,63.2,59.3,29.83,WSW,252,8.3,19.6,87,0.00,,,0.00,0.0,WeatherDisplay:10.37,2013-09-11 03:12:00,
2013-09-10 20:17:00,63.2,59.3,29.83,SSW,194,12.7,18.4,87,0.00,,,0.00,0.0,WeatherDisplay:10.37,2013-09-11 03:17:00,
2013-09-10 20:22:00,63.2,59.3,29.83,WSW,237,9.2,18.4,87,0.00,,,0.00,0.0,WeatherDisplay:10.37,2013-09-11 03:22:00,
2013-09-10 20:27:00,63.1,59.2,29.84,West,262,6.2,13.8,87,0.00,,,0.00,0.0,WeatherDisplay:10.37,2013-09-11 03:27:00,
2013-09-10 20:32:00,63.2,59.3,29.84,SW,223,9.3,21.9,87,0.00,,,0.00,0.0,WeatherDisplay:10.37,2013-09-11 03:32:00,
2013-09-10 20:37:00,63.1,59.2,29.84,SW,225,11.0,19.6,87,0.00,,,0.00,0.0,WeatherDisplay:10.37,2013-09-11 03:37:00,
2013-09-10 20:42:00,63.1,59.2,29.84,SW,224,13.3,19.6,87,0.00,,,0.00,0.0,WeatherDisplay:10.37,2013-09-11 03:42:00,
2013-09-10 20:47:00,63.2,59.3,29.84,SW,223,10.1,19.6,87,0.00,,,0.00,0.0,WeatherDisplay:10.37,2013-09-11 03:47:00,
2013-09-10 20:52:00,63.2,59.3,29.85,SW,218,14.6,19.6,87,0.00,,,0.00,0.0,WeatherDisplay:10.37,2013-09-11 03:52:00,
2013-09-10 20:57:00,63.1,59.2,29.85,SSW,194,7.5,13.8,87,0.00,,,0.00,0.0,WeatherDisplay:10.37,2013-09-11 03:57:00,
2013-09-10 21:01:00,63.2,59.3,29.85,SW,221,10.6,16.1,87,0.00,,,0.00,0.0,WeatherDisplay:10.37,2013-09-11 04:01:00,
2013-09-10 21:07:00,63.1,59.2,29.85,SW,224,12.2,18.4,87,0.00,,,0.00,0.0,WeatherDisplay:10.37,2013-09-11 04:07:00,
2013-09-10 21:12:00,63.1,59.2,29.85,WSW,237,12.4,16.1,87,0.00,,,0.00,0.0,WeatherDisplay:10.37,2013-09-11 04:12:00,
2013-09-10 21:17:00,63.1,59.2,29.85,SSW,204,10.9,18.4,87,0.00,,,0.00,0.0,WeatherDisplay:10.37,2013-09-11 04:17:00,
2013-09-10 21:22:00,63.1,59.2,29.85,SW,235,7.8,15.0,87,0.00,,,0.00,0.0,WeatherDisplay:10.37,2013-09-11 04:22:00,
2013-09-10 21:27:00,63.1,58.8,29.86,SW,228,10.6,16.1,86,0.00,,,0.00,0.0,WeatherDisplay:10.37,2013-09-11 04:27:00,
2013-09-10 21:32:00,63.1,58.8,29.86,SW,222,10.2,15.0,86,0.00,,,0.00,0.0,WeatherDisplay:10.37,2013-09-11 04:32:00,
2013-09-10 21:37:00,63.0,58.7,29.86,SW,216,11.4,15.0,86,0.00,,,0.00,0.0,WeatherDisplay:10.37,2013-09-11 04:37:00,
2013-09-10 21:42:00,63.0,58.7,29.86,SW,235,10.5,17.3,86,0.00,,,0.00,0.0,WeatherDisplay:10.37,2013-09-11 04:42:00,
2013-09-10 21:47:00,63.0,58.7,29.86,SW,225,7.0,16.1,86,0.00,,,0.00,0.0,WeatherDisplay:10.37,2013-09-11 04:47:00,
2013-09-10 21:52:00,63.0,58.7,29.86,SW,228,11.1,18.4,86,0.00,,,0.00,0.0,WeatherDisplay:10.37,2013-09-11 04:52:00,
2013-09-10 21:57:00,63.0,58.7,29.86,SSW,210,9.6,15.0,86,0.00,,,0.00,0.0,WeatherDisplay:10.37,2013-09-11 04:57:00,
2013-09-10 22:02:00,62.9,58.6,29.86,SW,227,8.1,12.7,86,0.00,,,0.00,0.0,WeatherDisplay:10.37,2013-09-11 05:02:00,
2013-09-10 22:07:00,62.9,58.6,29.86,SW,227,5.6,11.5,86,0.00,,,0.00,0.0,WeatherDisplay:10.37,2013-09-11 05:07:00,
2013-09-10 22:12:00,62.9,59.0,29.87,WSW,244,8.9,16.1,87,0.00,,,0.00,0.0,WeatherDisplay:10.37,2013-09-11 05:12:00,
2013-09-10 22:17:00,63.0,59.1,29.87,SW,225,5.0,12.7,87,0.00,,,0.00,0.0,WeatherDisplay:10.37,2013-09-11 05:17:00,
2013-09-10 22:22:00,63.0,58.7,29.87,SW,220,9.8,17.3,86,0.00,,,0.00,0.0,WeatherDisplay:10.37,2013-09-11 05:22:00,
2013-09-10 22:27:00,63.0,59.1,29.87,SW,225,9.8,14.0,87,0.00,,,0.00,0.0,WeatherDisplay:10.37,2013-09-11 05:27:00,
2013-09-10 22:32:00,63.0,59.1,29.87,SW,229,7.2,11.5,87,0.00,,,0.00,0.0,WeatherDisplay:10.37,2013-09-11 05:32:00,
2013-09-10 22:37:00,62.9,59.0,29.87,SSW,209,8.1,15.0,87,0.00,,,0.00,0.0,WeatherDisplay:10.37,2013-09-11 05:37:00,
2013-09-10 22:42:00,62.9,59.0,29.87,WSW,254,9.5,12.7,87,0.00,,,0.00,0.0,WeatherDisplay:10.37,2013-09-11 05:42:00,
2013-09-10 22:47:00,62.9,59.0,29.87,SSW,211,10.1,11.5,87,0.00,,,0.00,0.0,WeatherDisplay:10.37,2013-09-11 05:47:00,
2013-09-10 22:52:00,62.8,58.5,29.87,SSW,206,6.0,13.0,86,0.00,,,0.00,0.0,WeatherDisplay:10.37,2013-09-11 05:52:00,
2013-09-10 22:57:00,62.8,58.5,29.88,WSW,243,11.9,15.0,86,0.00,,,0.00,0.0,WeatherDisplay:10.37,2013-09-11 05:57:00,
2013-09-10 23:02:00,62.7,58.5,29.88,SW,216,8.0,13.8,86,0.00,,,0.00,0.0,WeatherDisplay:10.37,2013-09-11 06:02:00,
2013-09-10 23:07:00,62.8,58.5,29.88,WSW,248,12.6,17.3,86,0.00,,,0.00,0.0,WeatherDisplay:10.37,2013-09-11 06:07:00,
2013-09-10 23:12:00,62.7,58.5,29.88,SSW,210,13.8,19.6,86,0.00,,,0.00,0.0,WeatherDisplay:10.37,2013-09-11 06:12:00,
2013-09-10 23:17:00,62.7,58.5,29.88,SW,222,9.0,17.3,86,0.00,,,0.00,0.0,WeatherDisplay:10.37,2013-09-11 06:17:00,
2013-09-10 23:22:00,62.7,58.5,29.88,SW,226,10.2,15.0,86,0.00,,,0.00,0.0,WeatherDisplay:10.37,2013-09-11 06:22:00,
2013-09-10 23:27:00,62.7,58.5,29.88,SW,229,7.1,14.0,86,0.00,,,0.00,0.0,WeatherDisplay:10.37,2013-09-11 06:27:00,
2013-09-10 23:32:00,62.7,58.5,29.88,SW,215,8.5,12.0,86,0.00,,,0.00,0.0,WeatherDisplay:10.37,2013-09-11 06:32:00,
2013-09-10 23:37:00,62.7,58.5,29.88,SW,227,10.4,12.7,86,0.00,,,0.00,0.0,WeatherDisplay:10.37,2013-09-11 06:37:00,
2013-09-10 23:42:00,62.7,58.5,29.88,SW,233,3.6,12.0,86,0.00,,,0.00,0.0,WeatherDisplay:10.37,2013-09-11 06:42:00,
2013-09-10 23:47:00,62.7,58.5,29.88,SW,221,6.6,11.5,86,0.00,,,0.00,0.0,WeatherDisplay:10.37,2013-09-11 06:47:00,
2013-09-10 23:52:00,62.7,58.8,29.88,WSW,246,10.0,12.0,87,0.00,,,0.00,0.0,WeatherDisplay:10.37,2013-09-11 06:52:00,
2013-09-10 23:57:00,62.8,58.5,29.88,SW,233,6.7,12.7,86,0.00,,,0.00,0.0,WeatherDisplay:10.37,2013-09-11 06:57:00,